Cloud_Cover
99 39 7 15 10 7 2 0 0 0 0 0 0 2 0 0 0 0 2 16 68 42 6 2 0 73 45 1 0 2 0 0 0 3 100 100 99 28 22 15 0 10 0
97 100 84 25 4 0 0 0 0 0 0 5 0 0 0 0 0 4 3 100 100 63 21 92 97 66 2 0 0 0 0 0 0 0 84 100 100 97 6 0 0 21 10
86 100 80 12 6 5 5 5 0 2 5 0 0 0 0 0 0 13 0 0 0 2 62 69 34 0 0 0 0 0 0 0 0 0 0 8 99 95 3 0 0 0 18
100 62 80 94 100 100 79 9 8 2 7 5 0 0 0 0 0 0 0 0 0 2 11 22 3 5 0 0 0 0 0 0 0 0 0 0 5 100 57 3 96 100 10
100 100 100 100 98 100 62 11 14 4 2 0 0 0 0 0 7 0 0 0 0 18 17 2 0 0 0 0 0 0 0 0 0 0 0 0 0 11 0 2 45 41 100
100 100 100 100 100 100 78 76 20 25 5 2 0 0 0 46 9 0 0 0 0 12 0 0 0 0 0 0 0 0 0 0 0 0 0 0 3 98 10 39 100 100 99
100 100 100 100 100 100 100 18 6 5 0 0 0 0 0 0 0 0 0 0 0 0 0 0 0 0 0 0 0 0 0 0 0 0 0 0 0 8 86 5 39 100 100
100 100 100 100 100 100 100 100 56 5 5 5 0 0 0 0 0 0 0 0 0 0 0 0 0 0 0 0 0 0 0 0 0 0 0 0 0 58 95 2 38 36 12
100 98 100 100 100 100 100 100 88 17 0 5 0 0 0 0 0 0 0 0 0 0 0 0 0 0 0 0 0 0 0 0 0 0 0 0 0 50 92 100 18 10 2
100 100 100 100 100 97 96 36 100 9 5 0 5 2 2 0 0 0 0 0 0 0 0 0 0 0 0 0 0 0 0 0 0 0 0 0 0 51 1 59 72 4 10
100 50 98 100 91 49 97 98 100 100 49 5 5 5 60 7 4 0 0 0 0 0 0 0 0 0 0 0 0 0 0 0 0 0 0 0 4 71 21 10 98 9 0
80 93 100 100 88 100 76 92 100 98 100 100 100 44 14 5 5 5 24 2 0 0 0 0 0 0 0 0 0 0 0 0 0 0 0 0 0 85 45 2 9 2 0
100 100 100 92 100 76 100 100 99 100 100 100 100 100 76 23 25 5 42 28 43 0 16 2 0 0 0 0 0 0 0 0 0 0 0 0 0 37 45 18 15 19 7
97 88 61 83 100 100 100 100 100 100 100 100 100 100 100 90 80 91 61 99 92 60 4 0 14 0 0 0 0 0 0 0 0 0 0 0 0 0 20 100 82 14 15
100 100 100 78 72 100 100 64 76 40 98 100 100 100 100 100 100 84 97 58 78 91 68 16 5 2 0 0 0 0 0 0 0 0 0 0 0 0 0 89 100 46 18
73 93 94 100 96 24 33 48 12 5 6 5 36 97 100 94 100 100 100 100 100 95 30 32 59 15 4 0 0 20 0 0 0 0 0 0 0 0 0 0 64 99 43
100 85 10 14 60 57 13 4 0 0 0 0 4 0 0 23 23 98 77 100 88 100 100 100 100 100 99 99 38 96 99 17 13 0 0 0 0 0 0 0 0 1 9
100 100 84 20 7 5 5 4 5 1 1 0 0 0 0 0 0 1 9 79 100 100 100 100 100 100 100 100 100 100 23 6 67 42 0 0 0 0 0 0 0 0 0
8 4 5 9 5 5 4 3 5 3 0 0 0 0 3 2 4 2 5 5 55 91 100 100 100 100 100 100 100 100 100 83 100 93 3 0 0 0 0 0 0 0 0
2 0 0 0 0 1 1 1 0 0 0 2 0 0 0 0 0 1 1 5 6 46 81 100 100 100 100 100 100 100 100 100 100 100 93 52 0 0 0 0 0 0 0
0 0 0 0 0 0 0 0 0 0 0 0 0 0 0 0 0 0 0 0 12 100 99 21 79 100 100 98 100 100 100 100 100 100 100 100 95 0 0 5 0 0 0
0 0 0 0 0 0 0 0 0 0 0 0 0 0 0 0 0 0 0 0 38 100 97 6 29 45 85 100 100 100 100 94 100 100 100 100 100 100 50 1 5 3 0
0 0 0 0 0 0 0 0 0 0 0 0 0 0 0 0 0 0 0 0 8 4 16 41 25 40 74 100 100 100 100 100 95 100 100 100 100 100 100 93 5 14 5
0 0 0 0 0 0 0 0 0 0 0 0 0 0 0 0 0 0 0 0 0 10 2 2 16 12 61 74 100 98 100 100 100 100 82 94 99 97 98 100 89 34 36
0 0 0 0 0 0 0 0 0 0 0 0 0 0 0 0 0 0 0 0 0 17 3 5 1 2 5 34 68 100 100 100 100 100 100 100 100 100 100 100 100 100 86
0 0 0 0 0 0 0 0 0 0 0 0 0 0 0 0 0 0 0 0 0 2 0 0 0 4 0 1 36 97 100 100 100 100 100 100 100 96 100 100 99 98 100